Location: Pinawa
(50.1500°N, 95.8830°W)
Time: 04:45:43
(UTC-05:00)

Amateur Radio Satellites - All Passes

Search period start: 25 August 2016 04:15
Search period end: 26 August 2016 04:15
Location: Pinawa, 50.1500°N, 95.8830°W

Satellite Date Start Highest point End Downlink Frequencies (MHz)
Time Altitude Azimuth
Gurwin Techsat 1B 25 Aug 04:24:39 04:29:47 49° 292° (WNW) 04:34:52 435.225
SO-50 25 Aug 04:26:07 04:29:25 18° 341° (NNW) 04:32:42 436.795
MOZHAYETS 4 25 Aug 04:26:11 04:30:44 71° 257° (WSW) 04:35:19
RS-15 25 Aug 04:33:07 04:44:51 68° 320° (NW) 04:57:11 29.354- 29.394
ITUPSAT 1 25 Aug 04:34:07 04:36:18 13° 273° (W) 04:38:29 437.325
KKS-1 25 Aug 04:42:47 04:47:13 58° 258° (WSW) 04:51:41 437.445
JAS-2 25 Aug 04:44:06 04:45:44 11° 316° (NW) 04:47:25 435.910
ITAMSAT 1 25 Aug 04:46:13 04:51:26 88° 287° (WNW) 04:56:38 435.822/435.867
AO-7 25 Aug 05:00:39 05:08:49 56° 102° (ESE) 05:16:55 29.400- 29.500
YUBILEINY 25 Aug 05:18:57 05:22:52 14° 68° (ENE) 05:26:46 435.215
Oscar 19 25 Aug 05:20:36 05:22:22 12° 311° (NW) 05:24:09 437.125/150
STARS 25 Aug 05:27:23 05:31:35 41° 262° (W) 05:35:49 437.465
CUBESAT XI-V 25 Aug 05:37:50 05:42:25 86° 79° (E) 05:47:06 437.345
STRAND 1 25 Aug 05:48:02 05:50:15 13° 51° (NE) 05:52:29 437.568
Cosmos 2491 25 Aug 05:48:31 05:57:15 59° 73° (ENE) 06:05:57 435.465 / 435.565
HORYU 2 25 Aug 05:51:57 05:55:44 27° 95° (E) 05:59:29 437.375
Gurwin Techsat 1B 25 Aug 06:07:38 06:08:33 10° 313° (NW) 06:09:28 435.225
SO-50 25 Aug 06:09:04 06:11:43 15° 6° (N) 06:14:18 436.795
PHONESAT 2.4 25 Aug 06:16:30 06:18:06 14° 181° (S) 06:19:42 2401.200-2431.200
ITAMSAT 1 25 Aug 06:26:57 06:30:13 17° 306° (NW) 06:33:30 435.822/435.867
GOMX 1 25 Aug 06:29:20 06:32:57 18° 86° (E) 06:36:29 467.674
BRITE-PL 25 Aug 06:36:52 06:42:11 39° 95° (E) 06:47:28 437.365/2234.400
AO-85 25 Aug 06:41:01 06:45:46 35° 119° (ESE) 06:50:16 145.980
RS-15 25 Aug 06:48:42 06:59:56 42° 351° (N) 07:11:30 29.354- 29.394
DOVE 4 25 Aug 06:52:09 06:54:18 12° 83° (E) 06:56:23 437.250
Cubesat XI-IV 25 Aug 06:52:13 06:56:28 24° 92° (E) 07:00:41 437.490
AO-7 25 Aug 06:53:44 07:01:29 45° 304° (NW) 07:09:11 29.400- 29.500
CUTE-I 25 Aug 07:04:48 07:09:28 30° 94° (E) 07:14:05 437.470
YUBILEINY 25 Aug 07:09:05 07:17:41 60° 91° (E) 07:26:18 435.215
NOAA 15 25 Aug 07:15:36 07:20:42 45° 99° (E) 07:25:47 137.62
CUBESAT XI-V 25 Aug 07:18:18 07:20:30 13° 274° (W) 07:22:41 437.345
NOAA 18 25 Aug 07:19:47 07:24:48 35° 96° (E) 07:29:45 137.9125
Cosmos 2504 25 Aug 07:20:34 07:27:17 28° 81° (E) 07:33:41 435.465 / 435.565
STRAND 1 25 Aug 07:23:28 07:28:31 66° 71° (ENE) 07:33:35 437.568
HORYU 2 25 Aug 07:28:17 07:32:24 39° 293° (WNW) 07:36:30 437.375
LilacSat-2 25 Aug 07:45:41 07:49:29 72° 101° (ESE) 07:53:15 437.200
Cosmos 2491 25 Aug 07:45:52 07:53:45 39° 276° (W) 08:01:40 435.465 / 435.565
SO-50 25 Aug 07:49:43 07:53:44 27° 30° (NNE) 07:57:39 436.795
CINEMA 3 25 Aug 07:54:24 07:56:22 12° 85° (E) 07:58:17 145.822/145.860
GOMX 1 25 Aug 08:06:11 08:11:43 83° 286° (WNW) 08:17:04 467.674
HO-68 25 Aug 08:13:52 08:19:20 23° 89° (E) 08:24:46 435.675
PRISM 25 Aug 08:14:35 08:18:00 26° 64° (ENE) 08:21:26 437.425
BRITE-PL 25 Aug 08:15:21 08:20:38 41° 294° (WNW) 08:25:55 437.365/2234.400
AO-85 25 Aug 08:21:06 08:26:10 51° 317° (NW) 08:30:55 145.980
DOVE 4 25 Aug 08:27:40 08:32:55 79° 102° (ESE) 08:37:51 437.250
Cubesat XI-IV 25 Aug 08:31:42 08:36:57 60° 291° (WNW) 08:42:09 437.490
CUTE-I 25 Aug 08:44:38 08:49:43 47° 294° (WNW) 08:54:47 437.470
AO-7 25 Aug 08:47:46 08:52:14 16° 329° (NNW) 08:56:42 29.400- 29.500
ANTELSAT 25 Aug 08:52:08 08:52:14 10° 52° (NE) 08:52:20 437.575/2403.000
NOAA 15 25 Aug 08:55:40 09:00:22 33° 298° (WNW) 09:05:03 137.62
NOAA 18 25 Aug 09:00:24 09:05:34 43° 296° (WNW) 09:10:41 137.9125
RS-15 25 Aug 09:04:03 09:15:53 49° 25° (NNE) 09:27:47 29.354- 29.394
STRAND 1 25 Aug 09:04:26 09:08:10 20° 270° (W) 09:11:55 437.568
YUBILEINY 25 Aug 09:06:47 09:14:56 40° 295° (WNW) 09:23:09 435.215
SEEDS 25 Aug 09:10:50 09:14:43 35° 97° (E) 09:18:34 437.485
Cosmos 2504 25 Aug 09:11:34 09:20:01 75° 282° (WNW) 09:27:55 435.465 / 435.565
TIGRISAT 25 Aug 09:20:43 09:23:39 17° 59° (ENE) 09:26:34 435.000
LilacSat-2 25 Aug 09:21:28 09:23:18 13° 301° (WNW) 09:25:06 437.200
CANX-2 25 Aug 09:26:18 09:30:33 78° 103° (ESE) 09:34:47 2200.000
CINEMA 3 25 Aug 09:29:34 09:34:17 88° 283° (WNW) 09:38:44 145.822/145.860
SO-50 25 Aug 09:30:02 09:34:42 75° 232° (SW) 09:39:12 436.795
CUTE 1.7 + AOD 2 25 Aug 09:32:59 09:37:14 80° 104° (ESE) 09:41:28 437.475
GOMX 1 25 Aug 09:45:30 09:48:59 17° 306° (NW) 09:52:24 467.674
UNISAT 6 25 Aug 09:47:09 09:51:06 29° 65° (ENE) 09:54:59 437.425
PRISM 25 Aug 09:49:23 09:53:11 36° 262° (W) 09:57:02 437.425
AAUSAT CUBESAT 2 25 Aug 09:50:08 09:54:11 50° 100° (E) 09:58:14 437.432
AIST 1 25 Aug 09:54:34 09:58:29 34° 91° (E) 10:02:27
COMPASS 1 25 Aug 09:55:16 09:59:27 70° 102° (ESE) 10:03:37 437.405
HO-68 25 Aug 10:00:42 10:07:56 84° 290° (WNW) 10:15:05 435.675
AO-85 25 Aug 10:04:11 10:07:39 18° 339° (NNW) 10:10:58 145.980
ISS 25 Aug 10:05:04 10:06:18 12° 136° (SE) 10:07:33 145.825
DOVE 4 25 Aug 10:06:21 10:09:58 19° 303° (WNW) 10:13:28 437.250
CUBEBUG 2 25 Aug 10:06:35 10:10:54 68° 101° (E) 10:15:05 437.445
Oscar 11 25 Aug 10:07:49 10:11:43 33° 96° (E) 10:15:37 145.826/435.025
UWE-3 25 Aug 10:10:14 10:14:24 50° 99° (E) 10:18:27 435.000/436.395/437.385
FUNcube-1 25 Aug 10:11:30 10:15:17 32° 96° (E) 10:19:00 145.935
Cubesat XI-IV 25 Aug 10:13:52 10:15:59 12° 311° (NW) 10:18:07 437.490
NANOSAT C BR1 25 Aug 10:16:35 10:16:44 10° 53° (NE) 10:16:54 145.865
DELFI C3 25 Aug 10:18:26 10:21:17 19° 91° (E) 10:24:08 145.870
CUSAT 1 25 Aug 10:23:14 10:28:35 39° 70° (ENE) 10:35:09 437.405
ANTELSAT 25 Aug 10:23:31 10:28:03 59° 72° (ENE) 10:32:31 437.575/2403.000
ZACube-1 25 Aug 10:31:12 10:35:20 54° 100° (E) 10:39:23 437.345
BEESAT 3 25 Aug 10:31:26 10:33:50 16° 113° (ESE) 10:36:16 437.485
SEEDS 25 Aug 10:46:44 10:50:19 28° 295° (WNW) 10:53:54 437.485
DANDE 25 Aug 10:54:07 10:58:02 25° 69° (ENE) 11:02:53 436.750
TIGRISAT 25 Aug 10:55:13 10:59:51 75° 257° (WSW) 11:04:24 435.000
QB50P1 25 Aug 10:55:17 10:58:39 23° 62° (ENE) 11:02:02 145.935-145.965
CANX-2 25 Aug 11:03:31 11:05:51 15° 302° (WNW) 11:08:12 2200.000
POPSAT HIP 1 25 Aug 11:04:43 11:08:19 27° 64° (ENE) 11:11:57 437.405
CINEMA 3 25 Aug 11:08:10 11:10:41 14° 305° (NW) 11:13:06 145.822/145.860
BUGSAT 1 25 Aug 11:08:35 11:10:52 14° 57° (ENE) 11:13:09 437.445
Cosmos 2504 25 Aug 11:09:04 11:14:49 20° 305° (NW) 11:20:21 435.465 / 435.565
CUTE 1.7 + AOD 2 25 Aug 11:10:14 11:12:32 14° 302° (WNW) 11:14:48 437.475
YUBILEINY 25 Aug 11:12:36 11:15:02 11° 323° (NW) 11:17:29 435.215
SO-50 25 Aug 11:12:38 11:14:19 12° 252° (WSW) 11:15:59 436.795
RS-15 25 Aug 11:17:22 11:29:46 84° 233° (SW) 11:42:02 29.354- 29.394
UNISAT 6 25 Aug 11:23:21 11:27:42 39° 262° (W) 11:31:59 437.425
AAUSAT CUBESAT 2 25 Aug 11:26:17 11:29:22 20° 298° (WNW) 11:32:27 437.432
GONETS M04 25 Aug 11:26:58 11:33:04 22° 75° (ENE) 11:39:12
JAS-2 25 Aug 11:29:36 11:34:04 29° 59° (ENE) 11:38:48 435.910
COMPASS 1 25 Aug 11:32:02 11:34:32 16° 301° (WNW) 11:37:02 437.405
AIST 1 25 Aug 11:32:21 11:36:08 28° 290° (WNW) 11:39:58
QB50P2 25 Aug 11:33:43 11:37:53 53° 70° (ENE) 11:42:04 145.880/145.840
DUCHIFAT 1 25 Aug 11:35:10 11:39:14 46° 69° (ENE) 11:43:19 145.980
POLYITAN 1 25 Aug 11:36:15 11:40:25 54° 71° (ENE) 11:44:37 437.675
ISS 25 Aug 11:38:58 11:42:11 51° 154° (SSE) 11:45:24 145.825
ESTCUBE 1 25 Aug 11:39:22 11:41:39 14° 87° (E) 11:43:57 437.505/2401.250
HUMSAT D 25 Aug 11:41:38 11:45:43 66° 101° (E) 11:49:46 437.325/437.525
BEESAT 2 25 Aug 11:43:36 11:47:20 41° 122° (ESE) 11:51:06 435.950
Oscar 11 25 Aug 11:44:02 11:47:50 31° 294° (WNW) 11:51:37 145.826/435.025
CUBEBUG 2 25 Aug 11:44:18 11:47:02 17° 301° (WNW) 11:49:44 437.445
Oscar 19 25 Aug 11:46:42 11:48:05 11° 48° (NE) 11:49:29 437.125/150
UWE-3 25 Aug 11:47:24 11:50:33 20° 299° (WNW) 11:53:39 435.000/436.395/437.385
NANOSAT C BR1 25 Aug 11:47:26 11:51:39 65° 72° (ENE) 11:55:54 145.865
AO-85 25 Aug 11:47:32 11:49:54 14° 3° (N) 11:52:11 145.980
FUNcube-1 25 Aug 11:47:52 11:51:29 29° 295° (WNW) 11:55:04 145.935
HO-68 25 Aug 11:49:21 11:54:44 24° 311° (NW) 12:00:07 435.675
DELFI C3 25 Aug 11:52:32 11:56:23 47° 290° (WNW) 12:00:14 145.870
PCSat 25 Aug 11:57:52 12:00:01 12° 102° (ESE) 12:02:11 145.827
AISAT 25 Aug 11:59:26 12:01:16 12° 87° (E) 12:03:05 437.250
ANTELSAT 25 Aug 12:01:51 12:05:08 19° 269° (W) 12:08:23 437.575/2403.000
CUSAT 1 25 Aug 12:05:06 12:10:40 47° 265° (W) 12:17:32 437.405
BEESAT 3 25 Aug 12:07:06 12:11:02 71° 312° (NW) 12:15:00 437.485
ZACube-1 25 Aug 12:08:18 12:11:17 19° 299° (WNW) 12:14:12 437.345
AUBIESAT-1 25 Aug 12:16:03 12:19:46 29° 100° (E) 12:23:15 437.475
M-CUBED/EXP-1 PRIME 25 Aug 12:19:09 12:23:13 38° 103° (ESE) 12:26:58 437.505
UKube-1 25 Aug 12:23:59 12:24:53 11° 86° (E) 12:25:47 .
Cosmos 2499 25 Aug 12:25:33 12:32:39 35° 85° (E) 12:39:17 435.465 / 435.565
AO-7 25 Aug 12:27:34 12:30:31 12° 24° (NNE) 12:33:28 29.400- 29.500
QB50P1 25 Aug 12:30:04 12:34:11 46° 261° (W) 12:38:20 145.935-145.965
Gurwin Techsat 1B 25 Aug 12:34:03 12:36:43 14° 51° (NE) 12:39:23 435.225
DANDE 25 Aug 12:36:16 12:40:54 55° 262° (W) 12:47:03 436.750
TIGRISAT 25 Aug 12:36:58 12:37:18 10° 275° (W) 12:37:37 435.000
POPSAT HIP 1 25 Aug 12:40:00 12:43:59 38° 262° (W) 12:48:00 437.405
BUGSAT 1 25 Aug 12:41:24 12:45:40 84° 259° (WSW) 12:49:57 437.445
VELOX 1 25 Aug 12:45:27 12:49:28 31° 96° (E) 12:53:26 145.980
CUBEBUG 1 25 Aug 12:54:28 12:58:45 45° 99° (E) 13:03:00 437.445
QB50P2 25 Aug 13:10:56 13:14:01 19° 269° (W) 13:17:05 145.880/145.840
DX 1 25 Aug 13:11:48 13:15:56 38° 98° (E) 13:20:02 434.975-435.025
DUCHIFAT 1 25 Aug 13:11:53 13:15:10 21° 268° (W) 13:18:28 145.980
POLYITAN 1 25 Aug 13:13:31 13:16:33 19° 269° (W) 13:19:37 437.675
JAS-2 25 Aug 13:13:55 13:18:57 49° 261° (W) 13:24:19 435.910
ESTCUBE 1 25 Aug 13:14:31 13:19:05 82° 284° (WNW) 13:23:37 437.505/2401.250
ISS 25 Aug 13:15:21 13:18:38 68° 354° (N) 13:21:55 145.825
HUMSAT D 25 Aug 13:18:25 13:20:53 16° 301° (WNW) 13:23:22 437.325/437.525
GONETS M04 25 Aug 13:19:48 13:28:34 84° 97° (E) 13:37:27
Oscar 19 25 Aug 13:21:18 13:26:19 54° 68° (ENE) 13:31:23 437.125/150
BEESAT 2 25 Aug 13:21:40 13:25:15 32° 322° (NW) 13:28:53 435.950
SPROUT 25 Aug 13:24:39 13:28:44 40° 98° (E) 13:32:45 437.525
NANOSAT C BR1 25 Aug 13:25:14 13:27:49 16° 271° (W) 13:30:25 145.865
50 SAT 25 Aug 13:27:36 13:31:16 87° 99° (E) 13:34:55 437.505
AO-85 25 Aug 13:28:17 13:31:59 24° 28° (NNE) 13:35:27 145.980
RS-15 25 Aug 13:30:52 13:40:36 29° 258° (WSW) 13:50:16 29.354- 29.394
AIST 2 25 Aug 13:32:48 13:36:17 27° 118° (ESE) 13:39:49 435.215
AISAT 25 Aug 13:33:53 13:38:24 88° 283° (WNW) 13:42:52 437.250
PCSat 25 Aug 13:37:03 13:42:26 70° 122° (ESE) 13:47:51 145.827
BEESAT 3 25 Aug 13:46:41 13:49:24 17° 334° (NNW) 13:52:07 437.485
AUBIESAT-1 25 Aug 13:50:23 13:54:16 34° 301° (WNW) 13:57:52 437.475
M-CUBED/EXP-1 PRIME 25 Aug 13:53:51 13:57:36 28° 303° (WNW) 14:01:06 437.505
TISAT 1 25 Aug 13:53:56 13:57:06 20° 92° (E) 14:00:13 437.305
UKube-1 25 Aug 13:57:16 14:01:38 84° 102° (ESE) 14:05:59 .
Gurwin Techsat 1B 25 Aug 14:10:29 14:15:45 69° 71° (ENE) 14:21:04 435.225
AO-7 25 Aug 14:13:40 14:20:47 33° 49° (NE) 14:27:54 29.400- 29.500
Cosmos 2499 25 Aug 14:17:26 14:25:26 59° 286° (WNW) 14:32:54 435.465 / 435.565
BUGSAT 1 25 Aug 14:21:07 14:21:43 10° 274° (W) 14:22:20 437.445
VELOX 1 25 Aug 14:21:53 14:25:57 35° 294° (WNW) 14:30:00 145.980
ITAMSAT 1 25 Aug 14:30:06 14:34:49 37° 64° (ENE) 14:39:34 435.822/435.867
CUBEBUG 1 25 Aug 14:31:13 14:34:49 25° 298° (WNW) 14:38:25 437.445
DX 1 25 Aug 14:48:15 14:52:01 28° 296° (WNW) 14:55:45 434.975-435.025
ITUPSAT 1 25 Aug 14:49:47 14:52:52 17° 89° (E) 14:55:55 437.325
ISS 25 Aug 14:51:57 14:55:15 83° 12° (NNE) 14:58:33 145.825
ESTCUBE 1 25 Aug 14:53:01 14:55:10 13° 305° (NW) 14:57:19 437.505/2401.250
SPROUT 25 Aug 15:00:57 15:04:30 26° 297° (WNW) 15:08:02 437.525
Oscar 19 25 Aug 15:01:44 15:05:58 25° 268° (W) 15:10:14 437.125/150
BEESAT 2 25 Aug 15:02:36 15:04:16 12° 345° (NNW) 15:05:55 435.950
50 SAT 25 Aug 15:03:25 15:04:16 11° 303° (WNW) 15:05:06 437.505
AO-85 25 Aug 15:08:34 15:13:00 82° 234° (SW) 15:17:05 145.980
AIST 2 25 Aug 15:10:37 15:14:36 46° 317° (NW) 15:18:38 435.215
AISAT 25 Aug 15:11:52 15:14:13 14° 305° (NW) 15:16:34 437.250
O/OREOS (USA 219) 25 Aug 15:18:33 15:22:57 57° 112° (ESE) 15:27:25 437.305
YUBILEINY 25 Aug 15:19:18 15:21:19 11° 36° (NE) 15:23:20 435.215
GONETS M04 25 Aug 15:19:18 15:26:34 28° 302° (WNW) 15:33:56
PCSat 25 Aug 15:21:33 15:26:18 30° 323° (NW) 15:31:06 145.827
SWISSCUBE 25 Aug 15:23:24 15:27:49 36° 97° (E) 15:32:12 437.505
TISAT 1 25 Aug 15:28:56 15:33:01 48° 291° (WNW) 15:37:03 437.305
UKube-1 25 Aug 15:34:41 15:37:06 15° 304° (WNW) 15:39:30 .
BEESAT 25 Aug 15:40:44 15:45:21 47° 100° (E) 15:49:56 436.000
Gurwin Techsat 1B 25 Aug 15:52:19 15:56:14 20° 270° (W) 16:00:09 435.225
AO-7 25 Aug 16:04:29 16:12:52 80° 251° (WSW) 16:21:17 29.400- 29.500
ITAMSAT 1 25 Aug 16:09:31 16:14:18 37° 263° (W) 16:19:07 435.822/435.867
Cosmos 2499 25 Aug 16:16:09 16:20:21 15° 309° (NW) 16:24:26 435.465 / 435.565
MOZHAYETS 4 25 Aug 16:17:07 16:20:28 20° 91° (E) 16:23:49
BRITE-PL 25 Aug 16:17:28 16:19:29 12° 50° (NE) 16:21:34 437.365/2234.400
ITUPSAT 1 25 Aug 16:26:27 16:31:13 72° 288° (WNW) 16:35:59 437.325
ISS 25 Aug 16:28:35 16:31:32 30° 213° (SSW) 16:34:27 145.825
KKS-1 25 Aug 16:29:42 16:32:59 20° 91° (E) 16:36:14 437.445
Cubesat XI-IV 25 Aug 16:42:33 16:44:42 12° 49° (NE) 16:46:51 437.490
BEESAT 2 25 Aug 16:42:52 16:43:50 11° 9° (N) 16:44:49 435.950
AO-85 25 Aug 16:51:17 16:52:34 11° 252° (WSW) 16:53:51 145.980
AIST 2 25 Aug 16:51:38 16:54:05 15° 340° (NNW) 16:56:32 435.215
HORYU 2 25 Aug 16:54:01 16:58:16 45° 68° (ENE) 17:02:32 437.375
CUTE-I 25 Aug 16:54:14 16:57:11 15° 52° (NE) 17:00:09 437.470
O/OREOS (USA 219) 25 Aug 16:59:04 17:02:43 24° 313° (NW) 17:06:25 437.305
SWISSCUBE 25 Aug 17:01:19 17:05:35 33° 296° (WNW) 17:09:50 437.505
NOAA 15 25 Aug 17:02:34 17:06:23 21° 56° (NE) 17:10:14 137.62
Cosmos 2491 25 Aug 17:05:40 17:09:00 13° 67° (ENE) 17:12:19 435.465 / 435.565
BEESAT 3 25 Aug 17:05:44 17:07:58 14° 21° (NNE) 17:10:12 437.485
Cosmos 2504 25 Aug 17:07:25 17:10:30 13° 46° (NE) 17:13:32 435.465 / 435.565
PCSat 25 Aug 17:08:36 17:11:30 14° 349° (NNW) 17:14:25 145.827
STARS 25 Aug 17:12:10 17:15:52 26° 94° (E) 17:19:32 437.465
NOAA 18 25 Aug 17:12:13 17:16:11 21° 54° (NE) 17:20:08 137.9125
YUBILEINY 25 Aug 17:13:23 17:21:30 39° 65° (ENE) 17:29:30 435.215
BEESAT 25 Aug 17:18:58 17:22:55 27° 298° (WNW) 17:26:53 436.000
CUBESAT XI-V 25 Aug 17:30:42 17:33:38 16° 88° (E) 17:36:33 437.345
GOMX 1 25 Aug 17:41:18 17:45:40 29° 61° (ENE) 17:50:15 467.674
BRITE-PL 25 Aug 17:52:03 17:56:51 62° 70° (ENE) 18:02:05 437.365/2234.400
MOZHAYETS 4 25 Aug 17:53:31 17:58:00 56° 289° (WNW) 18:02:29
DOVE 4 25 Aug 18:00:48 18:04:48 23° 59° (ENE) 18:08:52 437.250
AO-7 25 Aug 18:01:11 18:06:58 20° 273° (W) 18:12:48 29.400- 29.500
KKS-1 25 Aug 18:05:30 18:09:54 55° 290° (WNW) 18:14:15 437.445
ITUPSAT 1 25 Aug 18:06:10 18:08:15 13° 308° (NW) 18:10:19 437.325
Cubesat XI-IV 25 Aug 18:18:30 18:23:45 59° 69° (ENE) 18:29:01 437.490
BEESAT 2 25 Aug 18:19:47 18:23:03 23° 32° (NNE) 18:26:19 435.950
CUTE-I 25 Aug 18:31:05 18:36:24 75° 72° (ENE) 18:41:45 437.470
HORYU 2 25 Aug 18:31:24 18:35:02 24° 267° (W) 18:38:40 437.375
LilacSat-2 25 Aug 18:31:43 18:35:32 69° 75° (ENE) 18:39:22 437.200
AIST 2 25 Aug 18:33:07 18:34:17 11° 4° (N) 18:35:26 435.215
NOAA 15 25 Aug 18:40:22 18:45:37 76° 256° (WSW) 18:50:56 137.62
BEESAT 3 25 Aug 18:42:42 18:46:34 47° 43° (NE) 18:50:25 437.485
HO-68 25 Aug 18:47:35 18:53:39 31° 54° (NE) 18:59:42 435.675
STARS 25 Aug 18:48:13 18:52:23 41° 293° (WNW) 18:56:30 437.465
CANX-2 25 Aug 18:50:01 18:52:10 14° 57° (ENE) 18:54:19 2200.000
NOAA 18 25 Aug 18:50:40 18:56:13 84° 254° (WSW) 19:01:48 137.9125
PCSat 25 Aug 18:54:05 18:57:15 15° 15° (NNE) 19:00:24 145.827
Cosmos 2491 25 Aug 18:55:19 19:03:45 57° 90° (E) 19:12:14 435.465 / 435.565
CUTE 1.7 + AOD 2 25 Aug 18:56:33 18:58:45 14° 58° (ENE) 19:00:57 437.475
Cosmos 2504 25 Aug 18:58:50 19:06:03 53° 72° (ENE) 19:13:01 435.465 / 435.565
CINEMA 3 25 Aug 18:59:09 19:03:03 23° 61° (ENE) 19:06:55 145.822/145.860
CUBESAT XI-V 25 Aug 19:06:50 19:11:32 73° 287° (WNW) 19:16:13 437.345
YUBILEINY 25 Aug 19:10:12 19:18:47 61° 269° (W) 19:27:18 435.215
COMPASS 1 25 Aug 19:17:50 19:19:23 12° 56° (NE) 19:20:56 437.405
GOMX 1 25 Aug 19:18:30 19:23:27 52° 262° (W) 19:28:44 467.674
STRAND 1 25 Aug 19:30:27 19:33:28 16° 88° (E) 19:36:28 437.568
BRITE-PL 25 Aug 19:32:08 19:35:51 21° 272° (W) 19:39:47 437.365/2234.400
CUBEBUG 2 25 Aug 19:34:19 19:37:05 16° 58° (ENE) 19:39:48 437.445
DOVE 4 25 Aug 19:36:50 19:41:59 69° 259° (WSW) 19:47:19 437.250
UWE-3 25 Aug 19:38:11 19:39:52 12° 55° (NE) 19:41:33 435.000/436.395/437.385
AIST 1 25 Aug 19:57:10 19:59:56 16° 63° (ENE) 20:02:42
BEESAT 2 25 Aug 19:57:17 20:01:17 70° 234° (SW) 20:05:16 435.950
ZACube-1 25 Aug 19:58:06 19:59:45 12° 56° (NE) 20:01:25 437.345
Cubesat XI-IV 25 Aug 19:59:57 20:04:13 24° 268° (W) 20:08:30 437.490
SEEDS 25 Aug 20:06:46 20:10:42 43° 70° (ENE) 20:14:40 437.485
LilacSat-2 25 Aug 20:08:38 20:10:17 12° 272° (W) 20:11:57 437.200
AIST 2 25 Aug 20:11:12 20:14:20 20° 28° (NNE) 20:17:28 435.215
CUTE-I 25 Aug 20:13:19 20:17:02 19° 271° (W) 20:20:46 437.470
BEESAT 3 25 Aug 20:20:45 20:24:02 25° 243° (WSW) 20:27:17 437.485
CANX-2 25 Aug 20:23:13 20:27:27 83° 258° (WSW) 20:31:41 2200.000
NOAA 15 25 Aug 20:24:15 20:26:19 12° 275° (W) 20:28:25 137.62
CUTE 1.7 + AOD 2 25 Aug 20:29:49 20:34:01 82° 255° (WSW) 20:38:15 437.475
HO-68 25 Aug 20:33:38 20:40:50 74° 255° (WSW) 20:48:04 435.675
NOAA 18 25 Aug 20:34:44 20:37:44 15° 273° (W) 20:40:44 137.9125
CINEMA 3 25 Aug 20:34:50 20:39:48 61° 259° (W) 20:44:45 145.822/145.860
PCSat 25 Aug 20:37:16 20:42:17 36° 40° (NE) 20:47:15 145.827
AAUSAT CUBESAT 2 25 Aug 20:44:29 20:48:32 60° 71° (ENE) 20:52:36 437.432
CUBESAT XI-V 25 Aug 20:46:09 20:48:07 13° 306° (NW) 20:50:05 437.345
COMPASS 1 25 Aug 20:50:09 20:54:17 85° 72° (ENE) 20:58:26 437.405
Cosmos 2504 25 Aug 20:52:41 20:59:08 35° 275° (W) 21:05:25 435.465 / 435.565
Cosmos 2491 25 Aug 20:52:51 21:00:57 41° 294° (WNW) 21:09:10 435.465 / 435.565
HUMSAT D 25 Aug 21:04:39 21:06:10 12° 56° (NE) 21:07:40 437.325/437.525
Oscar 11 25 Aug 21:06:44 21:10:50 45° 69° (ENE) 21:14:57 145.826/435.025
STRAND 1 25 Aug 21:08:11 21:13:20 84° 286° (WNW) 21:18:26 437.568
CUBEBUG 2 25 Aug 21:08:25 21:13:08 85° 255° (WSW) 21:17:45 437.445
DELFI C3 25 Aug 21:08:47 21:11:46 21° 63° (ENE) 21:14:46 145.870
YUBILEINY 25 Aug 21:09:38 21:13:38 14° 292° (WNW) 21:17:37 435.215
FUNcube-1 25 Aug 21:10:55 21:15:10 46° 70° (ENE) 21:19:22 145.935
UWE-3 25 Aug 21:11:02 21:15:36 74° 74° (ENE) 21:20:05 435.000/436.395/437.385
DOVE 4 25 Aug 21:19:10 21:20:40 11° 278° (W) 21:22:12 437.250
PRISM 25 Aug 21:26:21 21:29:36 22° 93° (E) 21:32:51 437.425
GONETS M04 25 Aug 21:28:40 21:33:43 16° 45° (NE) 21:38:44
ZACube-1 25 Aug 21:30:53 21:35:21 77° 73° (ENE) 21:39:44 437.345
AUBIESAT-1 25 Aug 21:33:07 21:35:49 16° 50° (NE) 21:38:31 437.475
AIST 1 25 Aug 21:33:39 21:38:03 68° 264° (W) 21:42:25
M-CUBED/EXP-1 PRIME 25 Aug 21:36:05 21:39:22 19° 52° (NE) 21:42:39 437.505
SEEDS 25 Aug 21:43:23 21:46:37 22° 268° (W) 21:49:52 437.485
AIST 2 25 Aug 21:49:14 21:53:27 81° 48° (NE) 21:57:39 435.215
Cosmos 2499 25 Aug 22:11:00 22:15:04 16° 51° (NE) 22:19:04 435.465 / 435.565
PCSat 25 Aug 22:20:38 22:25:57 55° 241° (WSW) 22:31:12 145.827
AAUSAT CUBESAT 2 25 Aug 22:21:54 22:24:25 16° 271° (W) 22:26:57 437.432
CUBEBUG 1 25 Aug 22:22:20 22:23:26 11° 53° (NE) 22:24:31 437.445
HO-68 25 Aug 22:25:39 22:29:50 16° 276° (W) 22:34:01 435.675
COMPASS 1 25 Aug 22:29:08 22:30:27 11° 274° (W) 22:31:45 437.405
HUMSAT D 25 Aug 22:36:57 22:41:07 83° 76° (ENE) 22:45:17 437.325/437.525
DELFI C3 25 Aug 22:42:38 22:46:23 43° 262° (W) 22:50:11 145.870
ESTCUBE 1 25 Aug 22:42:52 22:46:20 23° 61° (ENE) 22:49:51 437.505/2401.250
TIGRISAT 25 Aug 22:43:18 22:45:58 16° 89° (E) 22:48:36 435.000
Oscar 11 25 Aug 22:43:47 22:47:11 22° 268° (W) 22:50:36 145.826/435.025
FUNcube-1 25 Aug 22:48:08 22:51:38 22° 268° (W) 22:55:05 145.935
CUBEBUG 2 25 Aug 22:48:42 22:50:26 12° 274° (W) 22:52:09 437.445
STRAND 1 25 Aug 22:48:45 22:51:47 16° 306° (NW) 22:54:49 437.568
UWE-3 25 Aug 22:49:52 22:52:33 15° 272° (W) 22:55:12 435.000/436.395/437.385
Cosmos 2491 25 Aug 22:58:16 23:01:00 12° 322° (NW) 23:03:44 435.465 / 435.565
AISAT 25 Aug 23:00:29 23:03:48 21° 60° (ENE) 23:07:08 437.250
PRISM 25 Aug 23:01:07 23:05:07 44° 291° (WNW) 23:09:06 437.425
AUBIESAT-1 25 Aug 23:04:57 23:09:36 81° 68° (ENE) 23:14:15 437.475
M-CUBED/EXP-1 PRIME 25 Aug 23:08:38 23:13:20 81° 251° (WSW) 23:18:05 437.505
ZACube-1 25 Aug 23:09:47 23:12:09 14° 272° (W) 23:14:30 437.345
UNISAT 6 25 Aug 23:10:23 23:14:13 30° 95° (E) 23:17:59 437.425
UKube-1 25 Aug 23:21:45 23:24:41 18° 59° (ENE) 23:27:39 .
GONETS M04 25 Aug 23:24:19 23:33:02 55° 72° (ENE) 23:41:41
AIST 2 25 Aug 23:28:58 23:31:23 15° 248° (WSW) 23:33:48 435.215
CUSAT 1 25 Aug 23:35:11 23:36:27 12° 82° (E) 23:37:50 437.405
O/OREOS (USA 219) 25 Aug 23:44:44 23:49:01 37° 54° (NE) 23:53:17 437.305
VELOX 1 25 Aug 23:46:52 23:51:08 48° 69° (ENE) 23:55:27 145.980
ANTELSAT 25 Aug 23:47:10 23:51:31 68° 102° (ESE) 23:55:45 437.575/2403.000
SO-50 25 Aug 23:51:13 23:53:04 12° 108° (ESE) 23:54:55 436.795
CUBEBUG 1 25 Aug 23:54:31 23:58:52 67° 73° (ENE) 00:03:17 437.445
Cosmos 2499 26 Aug 00:02:43 00:09:50 67° 76° (ENE) 00:16:52 435.465 / 435.565
50 SAT 26 Aug 00:08:56 00:12:30 77° 75° (ENE) 00:16:07 437.505
QB50P1 26 Aug 00:10:35 00:13:48 21° 92° (E) 00:16:59 145.935-145.965
DX 1 26 Aug 00:11:25 00:15:43 60° 71° (ENE) 00:20:04 434.975-435.025
HUMSAT D 26 Aug 00:15:53 00:17:20 12° 273° (W) 00:18:47 437.325/437.525
JAS-2 26 Aug 00:16:38 00:21:30 21° 89° (E) 00:26:43 435.910
ESTCUBE 1 26 Aug 00:18:30 00:22:52 51° 260° (W) 00:27:17 437.505/2401.250
TIGRISAT 26 Aug 00:18:50 00:23:09 63° 288° (WNW) 00:27:21 435.000
POPSAT HIP 1 26 Aug 00:20:10 00:23:42 25° 94° (E) 00:27:11 437.405
BUGSAT 1 26 Aug 00:21:19 00:22:07 10° 86° (E) 00:22:54 437.445
SPROUT 26 Aug 00:22:15 00:26:28 55° 71° (ENE) 00:30:43 437.525
AISAT 26 Aug 00:35:32 00:39:55 57° 259° (W) 00:44:21 437.250
AUBIESAT-1 26 Aug 00:41:47 00:44:33 16° 266° (W) 00:47:20 437.475
M-CUBED/EXP-1 PRIME 26 Aug 00:46:34 00:48:32 12° 268° (W) 00:50:29 437.505
UNISAT 6 26 Aug 00:47:04 00:50:58 33° 294° (WNW) 00:54:48 437.425
QB50P2 26 Aug 00:49:38 00:53:48 51° 100° (E) 00:57:55 145.880/145.840
TISAT 1 26 Aug 00:49:41 00:53:19 28° 65° (ENE) 00:56:59 437.305
DUCHIFAT 1 26 Aug 00:50:08 00:54:10 43° 99° (E) 00:58:10 145.980
POLYITAN 1 26 Aug 00:52:10 00:56:20 52° 100° (E) 01:00:26 437.675
UKube-1 26 Aug 00:56:01 01:00:18 64° 258° (WSW) 01:04:38 .
SWISSCUBE 26 Aug 00:59:54 01:01:54 13° 52° (NE) 01:03:52 437.505
NANOSAT C BR1 26 Aug 01:02:47 01:07:00 63° 102° (ESE) 01:11:10 145.865
CUSAT 1 26 Aug 01:14:58 01:17:48 39° 290° (WNW) 01:21:21 437.405
BEESAT 26 Aug 01:16:20 01:19:06 16° 55° (NE) 01:21:53 436.000
GONETS M04 26 Aug 01:21:34 01:29:39 42° 275° (W) 01:37:43
O/OREOS (USA 219) 26 Aug 01:24:16 01:28:22 33° 253° (WSW) 01:32:29 437.305
VELOX 1 26 Aug 01:24:23 01:27:52 22° 268° (W) 01:31:22 145.980
ANTELSAT 26 Aug 01:24:57 01:27:45 17° 302° (WNW) 01:30:30 437.575/2403.000
SO-50 26 Aug 01:27:54 01:32:44 71° 127° (SE) 01:37:32 436.795
Oscar 19 26 Aug 01:29:45 01:32:11 13° 85° (E) 01:34:38 437.125/150
CUBEBUG 1 26 Aug 01:32:53 01:35:37 16° 271° (W) 01:38:24 437.445
QB50P1 26 Aug 01:45:45 01:49:50 47° 290° (WNW) 01:53:52 145.935-145.965
RS-15 26 Aug 01:46:41 01:57:02 40° 108° (ESE) 02:07:48 29.354- 29.394
DX 1 26 Aug 01:49:20 01:52:18 18° 270° (W) 01:55:17 434.975-435.025
DANDE 26 Aug 01:52:37 01:55:07 42° 287° (WNW) 01:57:53 436.750
BUGSAT 1 26 Aug 01:53:58 01:58:11 89° 115° (ESE) 02:02:18 437.445
POPSAT HIP 1 26 Aug 01:55:40 01:59:36 39° 293° (WNW) 02:03:32 437.405
Cosmos 2499 26 Aug 01:56:40 02:02:20 27° 278° (W) 02:07:58 435.465 / 435.565
SPROUT 26 Aug 01:59:44 02:02:46 18° 269° (W) 02:05:48 437.525
ITUPSAT 1 26 Aug 02:00:31 02:04:45 33° 64° (ENE) 02:09:01 437.325
JAS-2 26 Aug 02:00:40 02:07:13 89° 285° (WNW) 02:14:34 435.910
Gurwin Techsat 1B 26 Aug 02:22:47 02:26:32 19° 89° (E) 02:30:15 435.225
TISAT 1 26 Aug 02:24:58 02:28:52 35° 263° (W) 02:32:50 437.305
QB50P2 26 Aug 02:26:08 02:29:17 21° 299° (WNW) 02:32:25 145.880/145.840
DUCHIFAT 1 26 Aug 02:26:18 02:29:38 23° 298° (WNW) 02:32:58 145.980
POLYITAN 1 26 Aug 02:28:42 02:31:49 20° 299° (WNW) 02:34:55 437.675
SWISSCUBE 26 Aug 02:34:08 02:38:51 70° 72° (ENE) 02:43:36 437.505
NANOSAT C BR1 26 Aug 02:39:30 02:42:19 18° 300° (WNW) 02:45:06 145.865
BEESAT 26 Aug 02:51:28 02:56:14 90° 75° (ENE) 03:01:02 436.000
Cosmos 2491 26 Aug 03:05:50 03:07:21 10° 35° (NE) 03:08:52 435.465 / 435.565
Oscar 19 26 Aug 03:07:06 03:12:21 82° 105° (ESE) 03:17:34 437.125/150
SO-50 26 Aug 03:09:25 03:13:39 29° 328° (NNW) 03:17:50 436.795
MOZHAYETS 4 26 Aug 03:23:10 03:27:12 32° 65° (ENE) 03:31:15
BUGSAT 1 26 Aug 03:30:59 03:32:55 13° 304° (NW) 03:34:50 437.445
KKS-1 26 Aug 03:31:47 03:35:46 32° 65° (ENE) 03:39:47 437.445
ITUPSAT 1 26 Aug 03:38:10 03:42:34 37° 263° (W) 03:47:00 437.325
JAS-2 26 Aug 03:46:48 03:51:39 23° 305° (NW) 03:56:54 435.910
AO-7 26 Aug 04:01:26 04:08:12 26° 91° (E) 04:14:53 29.400- 29.500
Gurwin Techsat 1B 26 Aug 04:01:44 04:07:04 74° 288° (WNW) 04:12:21 435.225
